| time (UTC) | temp F | wind direction | speed MPH | gust MPH | rain 1hr in | rain 24hr in | rain mn in | humidity % | barometer mb |
| 20260506144506 | 37 | 338 | 0.0 | 0.0 | 0.01 | 0.24 | 0.05 | 1 | 1018.4 |
| 20260506143002 | 36 | 336 | 0.0 | 0.0 | 0.01 | 0.24 | 0.05 | 1 | 1018.3 |
| 20260506141558 | 35 | 321 | 0.0 | 0.0 | 0.01 | 0.24 | 0.05 | 1 | 1018.2 |
| 20260506140054 | 34 | 5 | 0.0 | 3.0 | 0.00 | 0.23 | 0.04 | 1 | 1017.9 |
| 20260506134614 | 33 | 333 | 0.0 | 0.0 | 0.00 | 0.24 | 0.04 | 1 | 1017.6 |
| 20260506133044 | 32 | 325 | 0.0 | 0.0 | 0.00 | 0.24 | 0.04 | 1 | 1017.2 |
| 20260506131557 | 31 | 325 | 0.0 | 0.0 | 0.00 | 0.24 | 0.04 | 1 | 1016.9 |
| 20260506130037 | 31 | 325 | 0.0 | 0.0 | 0.00 | 0.24 | 0.04 | 1 | 1016.6 |
| 20260506124531 | 31 | 325 | 0.0 | 0.0 | 0.00 | 0.25 | 0.04 | 1 | 1016.1 |
| 20260506123027 | 31 | 325 | 0.0 | 0.0 | 0.00 | 0.25 | 0.04 | 1 | 1015.8 |
| 20260506121523 | 32 | 325 | 0.0 | 0.0 | 0.00 | 0.25 | 0.04 | 1 | 1015.6 |
| 20260506120018 | 32 | 325 | 0.0 | 0.0 | 0.00 | 0.25 | 0.04 | 1 | 1015.3 |
| 20260506114522 | 32 | 325 | 0.0 | 0.0 | 0.00 | 0.25 | 0.04 | 1 | 1015.5 |
| 20260506113009 | 32 | 321 | 0.0 | 0.0 | 0.00 | 0.25 | 0.04 | 1 | 1015.3 |
| 20260506111505 | 33 | 336 | 0.0 | 0.0 | 0.00 | 0.25 | 0.04 | 1 | 1015.0 |
| 20260506110004 | 33 | 336 | 0.0 | 0.0 | 0.00 | 0.25 | 0.04 | 1 | 1014.8 |
| 20260506104604 | 33 | 327 | 0.0 | 0.0 | 0.00 | 0.25 | 0.04 | 1 | 1014.5 |
| 20260506103052 | 33 | 284 | 2.0 | 8.0 | 0.00 | 0.25 | 0.04 | 1 | 1014.9 |
| 20260506101548 | 33 | 306 | 4.0 | 10.0 | 0.00 | 0.25 | 0.04 | 1 | 1015.2 |
| 20260506100044 | 34 | 313 | 5.0 | 9.0 | 0.00 | 0.25 | 0.04 | 1 | 1015.1 |
| 20260506094539 | 34 | 346 | 8.0 | 15.0 | 0.00 | 0.25 | 0.04 | 1 | 1014.9 |
| 20260506093034 | 34 | 315 | 14.0 | 18.0 | 0.00 | 0.25 | 0.04 | 1 | 1014.6 |
| 20260506091530 | 34 | 291 | 10.0 | 15.0 | 0.00 | 0.25 | 0.04 | 1 | 1013.9 |
| 20260506090025 | 35 | 319 | 5.0 | 11.0 | 0.01 | 0.25 | 0.04 | 1 | 1013.5 |
| 20260506084522 | 35 | 319 | 11.0 | 16.0 | 0.01 | 0.25 | 0.04 | 1 | 1013.2 |
| 20260506083015 | 35 | 317 | 10.0 | 15.0 | 0.03 | 0.25 | 0.04 | 1 | 1013.0 |
| 20260506081519 | 35 | 340 | 3.0 | 15.0 | 0.04 | 0.25 | 0.04 | 1 | 1012.9 |
| 20260506073059 | 37 | 328 | 0.0 | 0.0 | 0.01 | 0.22 | 0.01 | 1 | 1011.9 |
| 20260506071556 | 40 | 328 | 0.0 | 0.0 | 0.00 | 0.21 | 0.00 | 1 | 1011.0 |
| 20260506061540 | 43 | 322 | 0.0 | 0.0 | 0.03 | 0.21 | 0.00 | 1 | 1009.1 |
| 20260506044512 | 46 | 163 | 0.0 | 0.0 | 0.00 | 0.18 | 0.18 | 1 | 1007.3 |
| 20260506043009 | 46 | 163 | 0.0 | 0.0 | 0.00 | 0.18 | 0.18 | 1 | 1007.2 |
| 20260506041504 | 46 | 163 | 0.0 | 0.0 | 0.00 | 0.18 | 0.18 | 1 | 1006.9 |
| 20260506040100 | 46 | 168 | 0.0 | 0.0 | 0.00 | 0.18 | 0.18 | 1 | 1006.8 |
| 20260506034558 | 46 | 171 | 0.0 | 0.0 | 0.00 | 0.18 | 0.18 | 1 | 1006.7 |
| 20260506033048 | 47 | 186 | 0.0 | 0.0 | 0.00 | 0.18 | 0.18 | 1 | 1006.7 |
| 20260506031544 | 47 | 194 | 0.0 | 0.0 | 0.00 | 0.18 | 0.18 | 1 | 1006.4 |
| 20260506030039 | 48 | 115 | 0.0 | 0.0 | 0.01 | 0.18 | 0.18 | 1 | 1006.3 |
| 20260506024542 | 48 | 184 | 0.0 | 0.0 | 0.01 | 0.18 | 0.18 | 1 | 1005.9 |
| 20260506023030 | 49 | 184 | 0.0 | 0.0 | 0.01 | 0.18 | 0.18 | 1 | 1005.3 |
| 20260506021526 | 50 | 198 | 0.0 | 0.0 | 0.01 | 0.18 | 0.18 | 1 | 1005.2 |
| 20260506020024 | 51 | 200 | 0.0 | 0.0 | 0.00 | 0.17 | 0.17 | 1 | 1004.9 |
| 20260506014517 | 53 | 205 | 0.0 | 0.0 | 0.00 | 0.17 | 0.17 | 1 | 1004.7 |
| 20260506013013 | 54 | 205 | 0.0 | 0.0 | 0.00 | 0.17 | 0.17 | 1 | 1004.7 |
| 20260506011534 | 54 | 202 | 0.0 | 0.0 | 0.00 | 0.17 | 0.17 | 1 | 1004.8 |
| 20260506010005 | 54 | 207 | 0.0 | 0.0 | 0.00 | 0.17 | 0.17 | 1 | 1004.9 |
| 20260506004501 | 54 | 205 | 0.0 | 0.0 | 0.00 | 0.17 | 0.17 | 8 | 1005.2 |
| 20260506003057 | 54 | 207 | 0.0 | 0.0 | 0.00 | 0.17 | 0.17 | 10 | 1005.3 |
| 20260506001553 | 54 | 207 | 0.0 | 0.0 | 0.00 | 0.17 | 0.17 | 8 | 1005.4 |
| 20260506000113 | 54 | 194 | 0.0 | 0.0 | 0.00 | 0.17 | 0.17 | 11 | 1005.4 |
| 20260505234548 | 54 | 360 | 0.0 | 0.0 | 0.00 | 0.17 | 0.17 | 1 | 1005.6 |
| 20260505233039 | 52 | 360 | 0.0 | 0.0 | 0.00 | 0.17 | 0.17 | 1 | 1005.6 |
| 20260505231536 | 51 | 360 | 0.0 | 0.0 | 0.00 | 0.17 | 0.17 | 1 | 1005.9 |
| 20260505230050 | 50 | 360 | 0.0 | 0.0 | 0.00 | 0.17 | 0.17 | 1 | 1006.0 |
| 20260505224536 | 50 | 201 | 0.0 | 0.0 | 0.00 | 0.17 | 0.17 | 1 | 1006.1 |
| 20260505223024 | 49 | 244 | 0.0 | 0.0 | 0.00 | 0.17 | 0.17 | 1 | 1006.2 |
| 20260505221518 | 48 | 244 | 0.0 | 0.0 | 0.00 | 0.17 | 0.17 | 1 | 1006.3 |
| 20260505220012 | 46 | 318 | 0.0 | 0.0 | 0.00 | 0.17 | 0.17 | 1 | 1006.5 |
| 20260505214512 | 44 | 317 | 0.0 | 0.0 | 0.01 | 0.17 | 0.17 | 1 | 1006.7 |
| 20260505213004 | 44 | 317 | 0.0 | 0.0 | 0.03 | 0.17 | 0.17 | 1 | 1006.8 |
| 20260505211559 | 44 | 317 | 0.0 | 0.0 | 0.04 | 0.17 | 0.17 | 1 | 1006.9 |
| 20260505210055 | 43 | 317 | 0.0 | 0.0 | 0.04 | 0.17 | 0.17 | 1 | 1006.9 |
| 20260505204553 | 43 | 318 | 0.0 | 0.0 | 0.03 | 0.16 | 0.16 | 1 | 1007.1 |
| 20260505203056 | 44 | 308 | 0.0 | 0.0 | 0.01 | 0.14 | 0.14 | 1 | 1007.0 |
| 20260505201546 | 44 | 308 | 0.0 | 0.0 | 0.00 | 0.13 | 0.13 | 1 | 1006.9 |
| 20260505200037 | 44 | 277 | 0.0 | 0.0 | 0.00 | 0.13 | 0.13 | 1 | 1006.5 |
| 20260505194539 | 44 | 276 | 0.0 | 0.0 | 0.01 | 0.13 | 0.13 | 1 | 1006.4 |
| 20260505193028 | 45 | 276 | 0.0 | 0.0 | 0.02 | 0.13 | 0.13 | 1 | 1006.2 |
| 20260505191524 | 43 | 272 | 0.0 | 0.0 | 0.02 | 0.13 | 0.13 | 1 | 1006.3 |
| 20260505190019 | 42 | 270 | 0.0 | 0.0 | 0.03 | 0.13 | 0.13 | 1 | 1006.3 |
| 20260505184520 | 41 | 270 | 0.0 | 0.0 | 0.05 | 0.12 | 0.12 | 1 | 1006.3 |
| 20260505183011 | 41 | 292 | 0.0 | 0.0 | 0.06 | 0.11 | 0.11 | 1 | 1006.5 |
| 20260505181506 | 42 | 310 | 0.0 | 0.0 | 0.06 | 0.11 | 0.11 | 1 | 1006.4 |
| 20260505180003 | 41 | 333 | 0.0 | 0.0 | 0.05 | 0.10 | 0.10 | 1 | 1006.4 |
| 20260505174558 | 43 | 173 | 0.0 | 0.0 | 0.02 | 0.07 | 0.07 | 1 | 1006.1 |
| 20260505173111 | 43 | 161 | 0.0 | 0.0 | 0.00 | 0.05 | 0.05 | 1 | 1005.7 |
| 20260505171605 | 43 | 179 | 0.0 | 0.0 | 0.01 | 0.05 | 0.05 | 1 | 1005.2 |
| 20260505170045 | 43 | 161 | 0.0 | 0.0 | 0.03 | 0.05 | 0.05 | 1 | 1004.9 |
| 20260505164540 | 42 | 165 | 0.0 | 0.0 | 0.03 | 0.05 | 0.05 | 1 | 1004.7 |
| 20260505163035 | 42 | 200 | 0.0 | 0.0 | 0.03 | 0.05 | 0.05 | 1 | 1004.7 |
| 20260505161531 | 42 | 189 | 0.0 | 0.0 | 0.02 | 0.04 | 0.04 | 1 | 1004.8 |
| 20260505153017 | 42 | 240 | 0.0 | 0.0 | 0.00 | 0.02 | 0.02 | 1 | 1004.5 |
| 20260505151514 | 42 | 205 | 0.0 | 0.0 | 0.00 | 0.02 | 0.02 | 1 | 1004.4 |